This demonstration page uses our WeatherBlox Daily Observations layout. Learn more.

Hourly Observations for March 10, 2015

Temp ( °F °C ) Dew Point ( °F °C ) Humidity (%) Winds ( mph kmh ) Pressure ( in mb ) Visibility ( mi km ) Precip ( " mm )
12:15 am 00:15 Clear 43 6.1 23 -5.1 45 45 S 10 17 29.94 1014 10 16.0934 0 0
12:35 am 00:35 Clear 45 7.1 23 -5.2 42 42 S 12 19 29.94 1014 10 16.0934 0 0
12:55 am 00:55 Clear 44 6.8 23 -5.2 42 42 S 10 17 29.94 1014 10 16.0934 0 0
1:15 am 01:15 Clear 44 6.5 23 -5.2 43 43 SSW 9 15 29.94 1014 10 16.0934 0 0
1:35 am 01:35 Clear 42 5.7 23 -5 46 46 SSW 8 13 29.94 1014 10 16.0934 0 0
1:55 am 01:55 Clear 43 6.2 24 -4.5 47 47 SSW 12 19 29.94 1014 10 16.0934 0 0
2:15 am 02:15 Clear 43 6.1 24 -4.3 48 48 SSW 10 17 29.94 1014 10 16.0934 0 0
2:35 am 02:35 Clear 40 4.7 24 -4.3 52 52 SW 8 13 29.97 1015 10 16.0934 0 0
2:55 am 02:55 Clear 40 4.6 25 -4.1 54 54 SSW 8 13 29.97 1015 10 16.0934 0 0
3:15 am 03:15 Clear 40 4.4 25 -3.7 56 56 SW 8 13 29.97 1015 10 16.0934 0 0
3:35 am 03:35 Clear 39 4.1 26 -3.5 58 58 SW 7 11 29.97 1015 10 16.0934 0 0
3:55 am 03:55 Clear 39 3.8 26 -3.5 59 59 SW 8 13 29.97 1015 10 16.0934 0 0
4:15 am 04:15 Clear 39 4 27 -3 61 61 SW 9 15 29.97 1015 10 16.0934 0 0
4:35 am 04:35 Clear 40 4.4 28 -2.1 63 63 SSW 10 17 29.94 1014 10 16.0934 0 0
4:55 am 04:55 Clear 39 3.9 27 -2.6 63 63 SSW 12 19 29.94 1014 10 16.0934 0 0
5:15 am 05:15 Clear 38 3.4 28 -2.3 67 67 SW 10 17 29.94 1014 10 16.0934 0 0
5:35 am 05:35 Clear 39 4.1 29 -1.4 68 68 SW 9 15 29.94 1014 10 16.0934 0 0
5:55 am 05:55 Clear 39 3.8 29 -1.6 68 68 SW 5 7 29.94 1014 10 16.0934 0 0
6:15 am 06:15 Clear 38 3.5 29 -1.5 70 70 SW 5 7 29.97 1015 10 16.0934 0 0
6:35 am 06:35 Clear 37 3 29 -1.5 73 73 WSW 7 11 29.97 1015 10 16.0934 0 0
6:55 am 06:55 Clear 36 2 29 -1.8 76 76 WSW 7 11 29.97 1015 10 16.0934 0 0
7:15 am 07:15 Clear 34 1.2 28 -2.4 77 77 W 8 13 30 1016 10 16.0934 0 0
7:35 am 07:35 Clear 33 0.8 27 -2.6 78 78 WNW 6 9 30 1016 10 16.0934 0 0
7:55 am 07:55 Clear 32 0 27 -2.9 81 81 WNW 12 19 30 1016 10 16.0934 0 0
8:15 am 08:15 Sunny 33 0.4 26 -3.2 77 77 WNW 10 17 30 1016 10 16.0934 0 0
8:35 am 08:35 Sunny 32 0.1 25 -3.8 75 75 WNW 8 13 30.03 1017 10 16.0934 0 0
8:55 am 08:55 Sunny 34 1.2 25 -3.7 70 70 NW 8 13 30.03 1017 10 16.0934 0 0
9:15 am 09:15 Sunny 38 3.5 26 -3.5 61 61 NW 10 17 30 1016 10 16.0934 0 0
9:35 am 09:35 Sunny 43 5.9 26 -3.4 52 52 NW 9 15 29.97 1015 10 16.0934 0 0
9:55 am 09:55 Sunny 47 8.3 26 -3.3 44 44 NW 9 15 29.97 1015 10 16.0934 0 0
10:15 am 10:15 Sunny 51 10.3 26 -3.6 38 38 NW 9 15 29.97 1015 10 16.0934 0 0
10:35 am 10:35 Sunny 55 12.7 25 -4.1 31 31 NW 13 20 29.94 1014 10 16.0934 0 0
10:55 am 10:55 Sunny 58 14.5 24 -4.2 27 27 NW 8 13 29.94 1014 10 16.0934 0 0
11:15 am 11:15 Sunny 60 15.7 24 -4.4 25 25 NNW 10 17 29.91 1013 10 16.0934 0 0
11:35 am 11:35 Sunny 62 16.8 24 -4.2 24 24 NNW 10 17 29.91 1013 10 16.0934 0 0
11:55 am 11:55 Sunny 64 17.9 24 -4.6 21 21 NNW 12 19 29.91 1013 10 16.0934 0 0
12:15 pm 12:15 Sunny 66 18.9 21 -6.2 18 18 NW 10 17 29.91 1013 10 16.0934 0 0
12:35 pm 12:35 Sunny 67 19.4 20 -6.7 17 17 NNW 9 15 29.94 1014 10 16.0934 0 0
12:55 pm 12:55 Sunny 67 19.4 19 -7.4 16 16 NW 9 15 29.91 1013 10 16.0934 0 0
1:15 pm 13:15 Sunny 67 19.6 19 -7.2 16 16 NW 7 11 29.88 1012 10 16.0934 0 0
1:35 pm 13:35 Sunny 67 19.7 18 -7.7 15 15 NW 10 17 29.91 1013 10 16.0934 0 0
1:55 pm 13:55 Sunny 68 20 18 -7.9 14 14 N 5 7 29.91 1013 10 16.0934 0 0
2:15 pm 14:15 Sunny 69 20.3 18 -7.7 14 14 N 6 9 29.88 1012 10 16.0934 0 0
2:35 pm 14:35 Sunny 69 20.5 19 -7.1 15 15 NNW 10 17 29.88 1012 10 16.0934 0 0
2:55 pm 14:55 Sunny 70 21 20 -6.6 15 15 NW 10 17 29.88 1012 10 16.0934 0 0
3:15 pm 15:15 Sunny 69 20.7 20 -6.8 15 15 NW 8 13 29.88 1012 10 16.0934 0 0
3:35 pm 15:35 Sunny 69 20.8 19 -7 15 15 N 7 11 29.88 1012 10 16.0934 0 0
3:55 pm 15:55 Sunny 70 21 20 -6.6 15 15 NNW 9 15 29.88 1012 10 16.0934 0 0
4:15 pm 16:15 Sunny 70 20.9 19 -7 15 15 NW 9 15 29.88 1012 10 16.0934 0 0
4:35 pm 16:35 Sunny 70 20.9 19 -7 15 15 NW 10 17 29.88 1012 10 16.0934 0 0
4:55 pm 16:55 Sunny 69 20.8 19 -7.4 14 14 N 5 7 29.88 1012 10 16.0934 0 0
5:15 pm 17:15 Sunny 70 20.9 19 -7.5 14 14 NW 5 7 29.88 1012 10 16.0934 0 0
5:35 pm 17:35 Sunny 69 20.8 19 -7.4 14 14 NW 5 7 29.91 1013 10 16.0934 0 0
5:55 pm 17:55 Sunny 69 20.7 18 -7.6 14 14 NW 5 7 29.91 1013 10 16.0934 0 0
6:15 pm 18:15 Sunny 69 20.6 18 -7.7 14 14 NNW 7 11 29.91 1013 10 16.0934 0 0
6:35 pm 18:35 Sunny 68 20.1 18 -8 14 14 NNE 7 11 29.91 1013 10 16.0934 0 0
6:55 pm 18:55 Sunny 67 19.4 17 -8.3 15 15 N 5 7 29.94 1014 10 16.0934 0 0
7:15 pm 19:15 Sunny 64 17.9 17 -8.6 16 16 NNW 5 7 29.97 1015 10 16.0934 0 0
7:35 pm 19:35 Sunny 62 16.7 16 -9.1 16 16 N 6 9 29.97 1015 10 16.0934 0 0
7:55 pm 19:55 Clear 54 12 15 -9.3 22 22 N 6 9 30.03 1017 10 16.0934 0 0
8:15 pm 20:15 Clear 51 10.7 15 -9.2 24 24 N 8 13 30.06 1018 10 16.0934 0 0
8:35 pm 20:35 Clear 48 8.7 15 -9.2 27 27 N 9 15 30.09 1019 10 16.0934 0 0
8:55 pm 20:55 Clear 48 8.7 16 -9.1 28 28 NNE 8 13 30.09 1019 10 16.0934 0 0
9:15 pm 21:15 Clear 46 8 16 -9.1 29 29 NNE 8 13 30.09 1019 10 16.0934 0 0
9:35 pm 21:35 Clear 45 7.1 15 -9.4 30 30 NNE 7 11 30.12 1020 10 16.0934 0 0
9:55 pm 21:55 Clear 43 6.2 16 -9.1 33 33 N 5 7 30.15 1021 10 16.0934 0 0
10:15 pm 22:15 Clear 43 6.2 16 -9 33 33 NE 3 6 30.15 1021 10 16.0934 0 0
10:35 pm 22:35 Clear 43 5.9 16 -9 34 34 Calm 30.15 1021 10 16.0934 0 0
10:55 pm 22:55 Clear 43 5.9 16 -8.7 35 35 Calm 30.15 1021 10 16.0934 0 0
11:15 pm 23:15 Clear 42 5.8 17 -8.3 36 36 Calm 30.18 1022 10 16.0934 0 0
11:35 pm 23:35 Clear 36 2.3 17 -8.6 45 45 Calm 30.21 1023 10 16.0934 0 0
11:55 pm 23:55 Clear 40 4.3 17 -8.5 39 39 Calm 30.18 1022 10 16.0934 0 0

Powered by AerisWeather